This demonstration page uses our WeatherBlox Daily Observations layout. Learn more.

Left ArrowRight Arrow

41.12389, -100.76542

Hourly Observations for March 15, 2020

Temp ( °F °C ) Dew Point ( °F °C ) Humidity (%) Winds ( mph kmh ) Pressure ( in mb ) Visibility ( mi km ) Precip ( " mm )
12:53 am 00:53 Cloudy 30 -1.1 26 -3.3 85 85 SSE 12 19 30.53 1034 10 16 0.00 0.00
1:06 am 01:06 Cloudy 30 -1.1 25 -3.9 82 82 S 9 15 30.57 1035 10 16 0.00 0.00
1:44 am 01:44 Cloudy 29 -1.7 26 -3.3 89 89 SSE 8 13 30.58 1035 10 16 0.00 0.00
1:53 am 01:53 Cloudy 29 -1.7 26 -3.3 89 89 SSE 9 15 30.53 1034 10 16 0.00 0.00
2:18 am 02:18 Cloudy with Light Freezing Rain 30 -1.1 26 -3.3 85 85 S 9 15 30.57 1035 9 14 0.00 0.00
2:27 am 02:27 Cloudy 30 -1.1 26 -3.3 85 85 S 9 15 30.57 1035 10 16 0.00 0.00
2:37 am 02:37 Cloudy 30 -1.1 25 -3.9 82 82 S 9 15 30.57 1035 10 16 0.00 0.00
2:49 am 02:49 Cloudy 30 -1 27 -3 86 86 S 7 11 30.57 1035 10 16 0.00 0.00
2:53 am 02:53 Cloudy 30 -1.1 26 -3.3 85 85 S 7 11 30.53 1034 10 16 0.00 0.00
3:28 am 03:28 Cloudy 29 -1.7 26 -3.3 89 89 SE 7 11 30.58 1035 10 16 0.00 0.00
3:38 am 03:38 Cloudy 29 -1.7 26 -3.3 89 89 SE 8 13 30.57 1035 10 16 0.00 0.00
3:53 am 03:53 Cloudy 29 -1.7 26 -3.3 89 89 SSE 8 13 30.52 1034 10 16 0.00 0.00
4:32 am 04:32 Cloudy with Mist and Fog 30 -1.1 27 -2.8 88 88 SE 9 15 30.54 1034 6 10 0.00 0.00
4:42 am 04:42 Cloudy 30 -1.1 26 -3.3 85 85 SE 10 17 30.54 1034 7 11 0.00 0.00
4:53 am 04:53 Cloudy with Mist and Fog 30 -1.1 26 -3.3 85 85 SE 10 17 30.48 1032 5 8 0.00 0.00
5:53 am 05:53 Cloudy 29 -1.7 26 -3.3 89 89 SSE 12 19 30.48 1032 10 16 0.00 0.00
6:53 am 06:53 Cloudy 30 -1.1 26 -3.3 85 85 SE 10 17 30.48 1032 10 16 0.00 0.00
7:53 am 07:53 Cloudy 30 -1.1 26 -3.3 85 85 SSE 10 17 30.48 1032 10 16 0.00 0.00
8:09 am 08:09 Cloudy 30 -1.1 26 -3.3 85 85 SSE 10 17 30.52 1033 10 16 0.00 0.00
8:21 am 08:21 Cloudy 30 -1.1 26 -3.3 85 85 SSE 10 17 30.53 1034 10 16 0.00 0.00
8:53 am 08:53 Cloudy 30 -1.1 26 -3.3 85 85 SSE 9 15 30.49 1033 10 16 0.00 0.00
9:00 am 09:00 Cloudy 30 -1.1 26 -3.3 85 85 SSE 9 15 30.53 1034 10 16 0.00 0.00
9:53 am 09:53 Cloudy 30 -1.1 27 -2.8 88 88 SSE 9 15 30.50 1033 10 16 0.00 0.00
10:17 am 10:17 Cloudy 30 -1.1 27 -2.8 88 88 SSE 10 17 30.53 1034 10 16 0.00 0.00
10:53 am 10:53 Cloudy 31 -0.6 27 -2.8 85 85 SSE 12 19 30.49 1033 10 16 0.00 0.00
11:53 am 11:53 Cloudy 31 -0.6 27 -2.8 85 85 S 13 20 30.48 1032 10 16 0.00 0.00
12:53 pm 12:53 Cloudy 32 0 28 -2.2 85 85 S 13 20 30.45 1031 10 16 0.00 0.00
1:53 pm 13:53 Cloudy 33 0.6 28 -2.2 82 82 S 10 17 30.43 1031 10 16 0.00 0.00
2:53 pm 14:53 Cloudy 33 0.6 28 -2.2 82 82 S 13 20 30.38 1029 10 16 0.00 0.00
3:53 pm 15:53 Cloudy 34 1.1 29 -1.7 82 82 S 14 22 30.34 1027 10 16 0.00 0.00
4:53 pm 16:53 Cloudy 34 1.1 30 -1.1 85 85 S 15 24 30.32 1027 10 16 0.00 0.00
5:53 pm 17:53 Cloudy 34 1.1 29 -1.7 82 82 SSW 18 30 30.31 1026 10 16 0.00 0.00
6:53 pm 18:53 Cloudy 34 1.1 30 -1.1 85 85 S 15 24 30.29 1026 10 16 0.00 0.00
7:53 pm 19:53 Cloudy 34 1.1 30 -1.1 85 85 SSW 9 15 30.29 1026 10 16 0.00 0.00
8:53 pm 20:53 Cloudy 34 1.1 31 -0.6 89 89 S 9 15 30.28 1025 10 16 0.00 0.00
9:03 pm 21:03 Cloudy 34 1.1 31 -0.6 89 89 S 6 9 30.31 1026 10 16 0.00 0.00
9:53 pm 21:53 Cloudy 34 1.1 31 -0.6 89 89 S 8 13 30.28 1026 10 16 0.00 0.00
10:53 pm 22:53 Cloudy 34 1.1 31 -0.6 89 89 S 12 19 30.25 1025 7 11 0.00 0.00
11:53 pm 23:53 Cloudy 34 1.1 32 0 92 92 S 6 9 30.24 1024 9 14 0.00 0.00

Powered by AerisWeather